Weather History for KLPR - March, 2013

Change the Weather History Date:

Friday, March 15, 2013

  Actual Average (KCLE) Record (KCLE)
Temperature  
Mean Temperature 37 °F 38 °F  
Max Temperature 44 °F 46 °F 80 °F (1990)
Min Temperature 30 °F 30 °F 3 °F (1993)
Degree Days  
Heating Degree Days 28 27  
Month to date heating degree days 439  
Since 1 July heating degree days 4656  
Cooling Degree Days 0 0  
Month to date cooling degree days 0  
Year to date cooling degree days 0  
Moisture  
Dew Point 31 °F    
Average Humidity 79    
Maximum Humidity 100    
Minimum Humidity 66    
Precipitation  
Precipitation 0.07 in 0.09 in - ()
Month to date precipitation 1.30  
Year to date precipitation 6.36  
Snow  
Snow 0.00 in 0.40 in - ()
Month to date snowfall 7.0  
Since 1 July snowfall 59.2  
Snow Depth -    
Sea Level Pressure  
Sea Level Pressure 29.94 in    
Wind  
Wind Speed 8 mph (West)    
Max Wind Speed 14 mph    
Max Gust Speed -    
Visibility 7 miles    
Events Rain    
T = Trace of Precipitation, MM = Missing Value Source: NWS Daily Summary

Daily Weather History Graph

Daily Weather History Graph

Search for Another Location

Airport or City:

Trip Planner

Search our weather history database for the weather conditions in past years. The results will help you decide how hot, cold, wet, or windy it might be!

Date:

Astronomy

Mar. 15, 2013 Rise Set
Actual Time 7:40 AM EDT 7:35 PM EDT
Civil Twilight 7:12 AM EDT 8:03 PM EDT
Nautical Twilight 6:40 AM EDT 8:35 PM EDT
Astronomical Twilight 6:07 AM EDT 9:07 PM EDT
Moon 9:26 AM EDT (3/15) 11:51 PM EDT (3/15)
Length of Visible Light 12h 50m
Length of Day
11h 55m
Waxing Crescent, 15% of the Moon is Illuminated
Mar 15
Waxing Crescent
Mar 19
First Quarter
Mar 27
Full
Apr 3
Last Quarter
Apr 10
New

Hourly Weather History & Observations

Time (EDT) Temp. Windchill Dew Point Humidity Pressure Visibility Wind Dir Wind Speed Gust Speed Precip Events Conditions
12:53 AM 30.0 °F 22.4 °F 21.9 °F 72% 30.12 in 10.0 mi SW 8.1 mph - N/A   Clear
1:53 AM 30.9 °F 25.2 °F 23.0 °F 72% 30.11 in 10.0 mi WSW 5.8 mph - N/A   Clear
2:53 AM 33.1 °F 26.1 °F 24.1 °F 70% 30.09 in 10.0 mi WSW 8.1 mph - N/A   Overcast
3:53 AM 33.1 °F 26.1 °F 24.1 °F 70% 30.06 in 10.0 mi WSW 8.1 mph - N/A   Overcast
4:53 AM 33.1 °F 25.5 °F 24.1 °F 70% 30.04 in 10.0 mi West 9.2 mph - N/A   Overcast
5:24 AM 33.8 °F 25.8 °F 24.8 °F 70% 30.01 in 10.0 mi WSW 10.4 mph - N/A   Overcast
5:53 AM 33.1 °F 24.9 °F 25.0 °F 72% 30.02 in 10.0 mi WSW 10.4 mph - N/A   Overcast
6:53 AM 32.0 °F 24.2 °F 26.1 °F 79% 30.00 in 10.0 mi WSW 9.2 mph - N/A   Partly Cloudy
7:10 AM 33.8 °F 25.8 °F 26.6 °F 75% 29.98 in 10.0 mi WSW 10.4 mph - N/A   Mostly Cloudy
7:48 AM 33.8 °F 24.8 °F 26.6 °F 75% 29.96 in 10.0 mi WSW 12.7 mph - N/A   Scattered Clouds
7:53 AM 33.1 °F 23.9 °F 26.1 °F 75% 29.99 in 10.0 mi WSW 12.7 mph - N/A   Scattered Clouds
8:53 AM 34.0 °F 26.0 °F 28.0 °F 79% 29.98 in 9.0 mi West 10.4 mph - N/A   Clear
9:53 AM 35.1 °F 25.9 °F 28.9 °F 78% 29.99 in 7.0 mi West 13.8 mph - N/A   Partly Cloudy
10:53 AM 37.0 °F 28.5 °F 30.0 °F 76% 29.96 in 8.0 mi WSW 13.8 mph - N/A   Partly Cloudy
11:30 AM 37.4 °F 29.3 °F 30.2 °F 75% 29.93 in 8.0 mi West 12.7 mph - N/A   Mostly Cloudy
11:53 AM 37.9 °F 30.5 °F 30.9 °F 76% 29.95 in 8.0 mi WSW 11.5 mph - N/A   Overcast
12:53 PM 41.0 °F 33.9 °F 32.0 °F 70% 29.93 in 8.0 mi WSW 12.7 mph - N/A   Partly Cloudy
1:53 PM 43.0 °F 37.2 °F 33.1 °F 68% 29.93 in 9.0 mi WSW 10.4 mph - N/A   Mostly Cloudy
2:53 PM 43.0 °F 37.2 °F 33.1 °F 68% 29.90 in 8.0 mi WNW 10.4 mph - N/A   Overcast
3:53 PM 44.1 °F 38.1 °F 34.0 °F 68% 29.87 in 8.0 mi WNW 11.5 mph - N/A   Mostly Cloudy
4:02 PM 44.6 °F 38.8 °F 33.8 °F 66% 29.85 in 8.0 mi WNW 11.5 mph - N/A   Mostly Cloudy
4:53 PM 44.1 °F 40.1 °F 34.0 °F 68% 29.88 in 7.0 mi NNW 6.9 mph - N/A   Mostly Cloudy
5:21 PM 42.8 °F 38.6 °F 33.8 °F 70% 29.86 in 7.0 mi North 6.9 mph - N/A   Scattered Clouds
5:53 PM 41.0 °F 36.4 °F 33.1 °F 73% 29.88 in 6.0 mi North 6.9 mph - 0.00 in Rain Light Rain
6:35 PM 37.4 °F 32.1 °F 32.0 °F 81% 29.87 in 4.0 mi NNE 6.9 mph - 0.00 in Rain Light Rain
6:53 PM 37.9 °F 32.7 °F 33.1 °F 83% 29.89 in 4.0 mi NNE 6.9 mph - 0.00 in Rain Light Rain
7:53 PM 37.0 °F 32.4 °F 34.0 °F 89% 29.90 in 4.0 mi NE 5.8 mph - 0.02 in Rain Light Rain
8:53 PM 37.0 °F 34.5 °F 34.0 °F 89% 29.90 in 3.0 mi ENE 3.5 mph - 0.02 in Rain Light Rain
9:09 PM 37.4 °F 33.8 °F 33.8 °F 87% 29.88 in 3.0 mi East 4.6 mph - 0.00 in Rain Light Rain
9:16 PM 37.4 °F 34.9 °F 33.8 °F 87% 29.88 in 3.0 mi East 3.5 mph - 0.00 in Rain Light Rain
9:31 PM 37.4 °F 34.9 °F 33.8 °F 87% 29.88 in 2.5 mi East 3.5 mph - 0.01 in Rain Light Rain
9:40 PM 35.6 °F 32.8 °F 33.8 °F 93% 29.88 in 2.5 mi East 3.5 mph - 0.01 in Rain Light Rain
9:53 PM 36.0 °F 33.3 °F 34.0 °F 93% 29.90 in 2.5 mi ESE 3.5 mph - 0.01 in Rain Light Rain
10:07 PM 35.6 °F - 33.8 °F 93% 29.88 in 2.5 mi Calm Calm - 0.01 in Rain Light Rain
10:16 PM 35.6 °F - 35.6 °F 100% 29.88 in 3.0 mi Calm Calm - 0.01 in Rain Light Rain
10:28 PM 35.6 °F - 35.6 °F 100% 29.88 in 2.5 mi Calm Calm - 0.01 in Rain Light Rain
10:53 PM 36.0 °F 33.3 °F 34.0 °F 93% 29.89 in 2.5 mi SE 3.5 mph - 0.01 in Rain Light Rain
11:34 PM 35.6 °F 31.7 °F 33.8 °F 93% 29.86 in 3.0 mi ESE 4.6 mph - 0.01 in Rain Light Rain
11:53 PM 36.0 °F 32.1 °F 34.0 °F 93% 29.88 in 2.5 mi ESE 4.6 mph - 0.01 in   Overcast